GALAXY 36 (G-36)

Last updated on Thu Nov 21 2024 00:02:45 GMT+0000 (Coordinated Universal Time)

1 54742U 22170B 24325.37578512 -.00000184 00000+0 00000+0 0 9990 2 54742 0.0151 278.8845 0000643 233.3127 313.9808 1.00271390 7021
UTC large
Height (km)
Speed (km/s)
/
Latitude / Longitude
Inclination (degrees)
Orbital Period (minutes)
Azimuth
Elevation
Range (km)
Doppler Factor

Next 0 passes for location: London (51.5072 / 0.1276)

Sorry there are no passes over London.